Location: Arclight Observatory
(36.5667°N, 87.3333°W)
Time: 06:15:55
(UTC-05:00)

HST - Visible Passes

Search period start: 01 September 2014 00:00
Search period end: 11 September 2014 00:00
Orbit: 547 x 551 km, 28.5° (Epoch: 31 August)

Date Brightness Start Highest point End Pass type
(mag) Time Alt. Az. Time Alt. Az. Time Alt. Az.
04 Sep 3.0 20:33:27 10° S 20:34:17 12° S 20:34:17 12° S visible
05 Sep 2.7 20:25:41 10° SSW 20:28:03 15° SSE 20:28:03 15° SSE visible
06 Sep 2.5 20:18:11 10° SSW 20:21:01 18° SSE 20:21:42 17° SSE visible
07 Sep 2.4 20:10:50 10° SW 20:13:57 20° SSE 20:15:16 18° SE visible
08 Sep 2.3 20:03:35 10° SW 20:06:54 23° S 20:08:45 17° SE visible
09 Sep 2.2 19:56:25 10° SW 19:59:51 25° S 20:02:11 16° SE visible
09 Sep 3.5 21:37:23 10° WSW 21:37:44 12° WSW 21:37:44 12° WSW visible
10 Sep 2.2 19:49:17 10° SW 19:52:48 26° S 19:55:34 14° SE visible
10 Sep 3.4 21:30:27 10° WSW 21:31:07 13° SW 21:31:07 13° SW visible
